Regional Weather Roundup
Issued by NWS

Home | Current Version | Previous Version | Graphics & Text | Print | Product List | Glossary On
Versions: 1 2 3 4 5 6 7 8 9 10 11 12 13 14 15 16 17 18 19 20 21 22 23 24 25 26 27 28 29 30 31 32 33 34 35 36 37 38 39 40 41 42 43 44 45 46 47 48 49 50
934
ASUS45 KTFX 072210
RWRMT
MONTANA REGIONAL WEATHER ROUNDUP
NATIONAL WEATHER SERVICE GREAT FALLS MT
300 PM MST SUN FEB 07 2016

NOTE: "FAIR" INDICATES FEW OR NO CLOUDS BELOW 12000 FEET WITH NO
SIGNIFICANT WEATHER AND/OR OBSTRUCTIONS TO VISIBILITY.

MTZ001>007-043-072300-
WEST OF THE DIVIDE

CITY           SKY/WX    TMP DP  RH WIND       PRES   REMARKS
KALISPELL      CLOUDY    38  24  57 CALM      30.55F
MISSOULA       SUNNY     35  22  58 CALM      30.57F
BUTTE          SUNNY     33  16  49 NW7       30.47F WCI  27
MULLAN PASS    CLOUDY    29  19  66 VRB3      30.50R
ANACONDA         N/A     34  16  47 N5        30.49F
DEER LODGE       N/A     37  18  44 CALM      30.52F
HAMILTON         N/A     43  25  49 CALM      30.53F
LIBBY            N/A     39  25  56 CALM      30.57F
PLAINS           N/A     44  25  47 NW1       30.54S
$$

MTZ008-052>055-072300-
SOUTHWEST MONTANA

CITY           SKY/WX    TMP DP  RH WIND       PRES   REMARKS
BOZEMAN        SUNNY     34  16  47 SE3       30.48F
DILLON         SUNNY     37  22  54 NE7       30.46S WCI  32
ENNIS          SUNNY     43   5  21 VRB8      30.52R
TWIN BRIDGES     N/A     38  20  48 CALM      30.42S
$$

MTZ009-010-012-014-046-048-049-054-072300-
EAST SLOPES AND CENTRAL MONTANA

CITY           SKY/WX    TMP DP  RH WIND       PRES   REMARKS
CUT BANK       PTSUNNY   41  12  30 W21       30.39F
GREAT FALLS    SUNNY     44   8  23 SW8G20    30.41F
MALMSTROM AFB  SUNNY     43   8  24 W13       30.43F
HELENA         SUNNY     41  18  39 W14       30.46S
CHOTEAU          N/A     43   5  21 CALM      30.41F
CONRAD           N/A     44  12  27 W3        30.38F
$$

MTZ011-013-016-021-045-047-050-051-072300-
NORTH CENTRAL MONTANA

CITY           SKY/WX    TMP DP  RH WIND       PRES   REMARKS
HAVRE          SUNNY     41  11  29 NW15      30.44S
LEWISTOWN      SUNNY     35  11  36 NW6       30.41S WCI  30
N BAR RANCH      N/A     34   7  32 NW22G28   30.39S WCI  22
CHINOOK          N/A     39  10  30 NW21G26   30.42S WCI  29
$$

MTZ017>020-022>027-061-062-072300-
NORTHEAST MONTANA

CITY           SKY/WX    TMP DP  RH WIND       PRES   REMARKS
GLASGOW        SUNNY     36  20  52 NW23G33   30.33R WCI  24
JORDAN           N/A     38  17  42 NW23G31   30.36R WCI  27
SIDNEY         PTSUNNY   37  16  41 NW29G38   30.23S WCI  25
WOLF POINT     SUNNY     39  19  44 NW30G40   30.30R WCI  27
PLENTYWOOD       N/A     34  21  60 NW26G45   30.19R WCI  21
POPLAR           N/A     37  18  44 NW30G41   30.25R WCI  25
SCOBEY           N/A     35  13  40 NW30      30.22R WCI  21
$$

MTZ028>42-056>058-072300-
SOUTHCENTRAL AND SOUTHEAST MONTANA

CITY           SKY/WX    TMP DP  RH WIND       PRES   REMARKS
BAKER          MOSUNNY   36  11  35 NW40G52   30.24R WCI  21
BILLINGS       MOSUNNY   42   8  24 N15G25    30.40S
LIVINGSTON     SUNNY     43   7  22 W29G35    30.41S
MILES CITY     SUNNY     38  12  34 NW30G41   30.34R WCI  26
FORSYTH          N/A     39  12  33 NW20G25   30.38R WCI  30
LAUREL           N/A     43   8  23 N12       30.35F
ROUNDUP          N/A     40   4  22 NW23      30.28R
$$

REGIONAL REPORTS...DAKOTAS

CITY           SKY/WX    TMP DP  RH WIND       PRES   REMARKS
WILLISTON      SUNNY     36  18  48 NW35G45   30.19R WCI  22
MINOT          MOSUNNY   34  17  50 NW36G47   30.03R WCI  19
DICKINSON      PTSUNNY   33  11  39 NW37G47   30.12R WCI  18
BEACH          PTSUNNY   34  14  44 NW37G45   30.24R WCI  19
CROSBY           N/A     34  19  55 NW37G45   30.15R WCI  19
TIOGA          FLURRIES  32  21  64 NW31G43   30.16R WCI  17
WATFORD CITY     N/A     32  14  47 NW29G40   30.18R WCI  18
BISMARCK       PTSUNNY   36  17  46 NW25G40   30.03R WCI  24
GRAND FORKS    SNOW      18  11  74 N26G36    29.88R VSB 1/4 WCI  -1
FARGO          FLURRIES  24  15  68 N31G38    29.84R WCI   7
BUFFALO SD       N/A     37  10  32 NW52G61   30.09R WCI  21
RAPID CITY     SUNNY     39   5  24 NW47G61   30.17R WCI  25
$$

REGIONAL REPORTS...WYOMING/IDAHO/WASHINGTON

CITY           SKY/WX    TMP DP  RH WIND       PRES   REMARKS
GILLETTE       CLOUDY    32  11  41 NW32G39   30.32R WCI  17
SHERIDAN       PTSUNNY   36   9  32 NW20      30.35F WCI  25
BUFFALO WY     CLOUDY    32  13  45 N24G38    30.34R WCI  19
CODY           SUNNY     37  16  41 NE10      30.38R WCI  30
YELLOWSTONE LA   N/A     30  10  43 VRB6      30.45R WCI  24
IDAHO FALLS    CLOUDY    24  21  88 N6        30.59R FOG     WCI  17
SALMON         CLOUDY    27  16  63 CALM      30.59F
BOISE          SUNNY     47  34  60 NW8       30.59F
SPOKANE        PTSUNNY   40  31  70 NE3       30.59S
$$

REGIONAL REPORTS...ALBERTA

CITY           SKY/WX    TMP DP  RH WIND       PRES   REMARKS
EDMONTON       SUNNY     36  18  48 W7        30.34R WCI  30
CALGARY        PTSUNNY   39   1  20 SW5       30.35F
LETHBRIDGE     PTSUNNY   43  10  26 W13G20    30.40S
MEDICINE HAT   PTSUNNY   41   9  26 NW13G18   30.42R
$$

REGIONAL REPORTS...SASKATCHEWAN

CITY           SKY/WX    TMP DP  RH WIND       PRES   REMARKS
SWIFT CURRENT  SUNNY     34  18  51 NW30G38   30.29R WCI  20
REGINA         MOSUNNY   32  19  59 NW31G39   30.21R WCI  17
SASKATOON      MOSUNNY   30  21  69 NW17G25   30.25S WCI  18
$$




USA.gov is the U.S. government's official web portal to all federal, state and local government web resources and services.